Location: Dumpton Point
(51.3500°N, 1.4433°E)
Time: 03:29:32
(UTC+00:00)

Altair - Pass Details

Date: 05 October 2022
Orbit: 1501 x 1682 km, 47.2° (Epoch: 04 December)

Event Time Altitude Azimuth Distance (km) Brightness Sun altitude
Rises 09:52:23 0° 285° (WNW) 4,884 9.7 29.1°
Reaches altitude 10° 09:55:40 10° 279° (W) 3,913 9.4 29.4°
Maximum altitude 10:04:59 45° 212° (SSW) 2,169 9.0 30.1°
Drops below altitude 10° 10:14:23 10° 144° (SE) 3,935 11.2 30.7°
Sets 10:17:42 0° 138° (SE) 4,912 11.2 31.0°
